FW2996 Weather Reports


Display with metric or nautical units.
time (UTC)temp
F
wind
direction
speed
MPH
gust
MPH
rain 1hr
in
rain 24hr
in
rain mn
in
humidity
%
barometer
mb
20260510222431 86 110 11.0 16.0 0.00 0.00 0.00 60 1052.8
20260510221927 87 112 10.0 13.0 0.00 0.00 0.00 58 1053.1
20260510221423 86 159 8.0 11.0 0.00 0.00 0.00 58 1053.1
20260510220919 86 146 7.0 13.0 0.00 0.00 0.00 59 1053.0
20260510220415 86 152 7.0 13.0 0.00 0.00 0.00 60 1053.0
20260510215911 86 137 6.0 10.0 0.00 0.00 0.00 60 1053.1
20260510215409 85 132 5.0 9.0 0.00 0.00 0.00 61 1053.0
20260510214907 85 139 7.0 13.0 0.00 0.00 0.00 60 1053.4
20260510214403 85 161 7.0 11.0 0.00 0.00 0.00 61 1053.4
20260510213900 86 132 6.0 13.0 0.00 0.00 0.00 59 1053.4
20260510213356 87 187 6.0 11.0 0.00 0.00 0.00 59 1053.3
20260510212853 86 124 9.0 15.0 0.00 0.00 0.00 58 1053.4
20260510212350 86 137 9.0 13.0 0.00 0.00 0.00 60 1053.6
20260510211847 86 124 6.0 9.0 0.00 0.00 0.00 60 1053.9
20260510211343 86 127 4.0 9.0 0.00 0.00 0.00 59 1053.9
20260510210838 88 146 8.0 11.0 0.00 0.00 0.00 58 1053.9
20260510210333 86 194 4.0 7.0 0.00 0.00 0.00 59 1053.9
20260510205827 87 118 8.0 10.0 0.00 0.00 0.00 59 1053.9
20260510205323 87 139 5.0 9.0 0.00 0.00 0.00 59 1053.7
20260510204819 86 158 11.0 14.0 0.00 0.00 0.00 59 1053.8
20260510204316 86 83 11.0 13.0 0.00 0.00 0.00 59 1053.9
20260510203812 86 124 7.0 10.0 0.00 0.00 0.00 61 1053.9
20260510203310 86 157 6.0 13.0 0.00 0.00 0.00 60 1053.8
20260510202810 86 147 6.0 8.0 0.00 0.00 0.00 60 1053.8
20260510202306 86 161 9.0 14.0 0.00 0.00 0.00 60 1053.9
20260510201803 86 104 12.0 17.0 0.00 0.00 0.00 62 1053.8
20260510201259 86 184 7.0 9.0 0.00 0.00 0.00 62 1053.9
20260510200756 86 186 5.0 10.0 0.00 0.00 0.00 61 1054.2
20260510200254 86 167 6.0 11.0 0.00 0.00 0.00 64 1054.1
20260510195750 85 112 4.0 10.0 0.00 0.00 0.00 64 1054.2
20260510195247 85 133 10.0 15.0 0.00 0.00 0.00 64 1054.2
20260510194746 85 156 11.0 13.0 0.00 0.00 0.00 65 1054.2
20260510194244 86 171 8.0 10.0 0.00 0.00 0.00 62 1054.4
20260510193740 85 174 6.0 13.0 0.00 0.00 0.00 64 1054.5
20260510193240 85 135 10.0 13.0 0.00 0.00 0.00 63 1054.3
20260510192736 86 121 10.0 15.0 0.00 0.00 0.00 62 1054.4
20260510192231 86 141 4.0 8.0 0.00 0.00 0.00 62 1054.6
20260510191728 86 138 14.0 16.0 0.00 0.00 0.00 60 1054.5
20260510191224 85 161 9.0 15.0 0.00 0.00 0.00 60 1054.4
20260510190722 86 183 5.0 14.0 0.00 0.00 0.00 62 1054.6
20260510190218 86 188 5.0 11.0 0.00 0.00 0.00 60 1054.5
20260510185715 84 138 7.0 19.0 0.00 0.00 0.00 66 1054.6
20260510185214 84 153 5.0 13.0 0.00 0.00 0.00 63 1054.6
20260510184710 85 140 8.0 13.0 0.00 0.00 0.00 62 1054.4
20260510184206 85 206 6.0 9.0 0.00 0.00 0.00 63 1054.3
20260510183701 84 189 7.0 13.0 0.00 0.00 0.00 68 1054.5
20260510183156 84 136 10.0 16.0 0.00 0.00 0.00 66 1054.7
20260510182653 84 207 4.0 14.0 0.00 0.00 0.00 66 1054.9
20260510182149 85 143 8.0 15.0 0.00 0.00 0.00 66 1054.7
20260510181646 84 102 12.0 18.0 0.00 0.00 0.00 68 1054.8
20260510181143 84 126 6.0 14.0 0.00 0.00 0.00 64 1054.9
20260510180638 84 174 9.0 10.0 0.00 0.00 0.00 65 1055.1
20260510180137 85 150 5.0 7.0 0.00 0.00 0.00 63 1055.1
20260510175632 83 195 6.0 13.0 0.00 0.00 0.00 67 1055.0
20260510175128 84 175 9.0 13.0 0.00 0.00 0.00 66 1055.2
20260510174626 83 160 6.0 9.0 0.00 0.00 0.00 66 1055.4
20260510174124 82 169 4.0 11.0 0.00 0.00 0.00 70 1055.3
20260510173619 83 138 6.0 10.0 0.00 0.00 0.00 68 1055.5
20260510173116 83 125 5.0 10.0 0.00 0.00 0.00 68 1055.5
20260510172611 82 116 4.0 11.0 0.00 0.00 0.00 70 1055.5
20260510172108 83 185 7.0 11.0 0.00 0.00 0.00 70 1055.6
20260510171604 83 174 8.0 13.0 0.00 0.00 0.00 69 1055.8
20260510171102 81 133 6.0 10.0 0.00 0.00 0.00 74 1055.7
20260510170558 81 93 4.0 10.0 0.00 0.00 0.00 72 1055.7
20260510170055 81 171 4.0 13.0 0.00 0.00 0.00 72 1055.8
20260510165550 82 167 12.0 14.0 0.00 0.00 0.00 71 1055.8
20260510165047 82 176 9.0 11.0 0.00 0.00 0.00 72 1055.7
20260510164544 82 128 7.0 14.0 0.00 0.00 0.00 72 1055.8
20260510164040 82 180 6.0 10.0 0.00 0.00 0.00 71 1055.7
20260510163535 81 184 5.0 13.0 0.00 0.00 0.00 74 1055.8
20260510163032 82 134 5.0 10.0 0.00 0.00 0.00 70 1055.9
20260510162527 82 146 4.0 10.0 0.00 0.00 0.00 71 1055.8
20260510162019 82 136 8.0 11.0 0.00 0.00 0.00 70 1055.8
20260510161515 82 125 8.0 10.0 0.00 0.00 0.00 70 1055.9
20260510161011 81 138 4.0 10.0 0.00 0.00 0.00 73 1055.8
20260510160503 81 140 8.0 14.0 0.00 0.00 0.00 75 1055.9
20260510160002 82 135 4.0 13.0 0.00 0.00 0.00 72 1055.7
20260510155459 80 133 4.0 11.0 0.00 0.00 0.00 74 1055.6
20260510154955 80 131 8.0 10.0 0.00 0.00 0.00 74 1055.7
20260510154450 80 155 6.0 8.0 0.00 0.00 0.00 74 1055.7
20260510153949 79 149 4.0 8.0 0.00 0.00 0.00 76 1055.7
20260510153440 79 193 4.0 8.0 0.00 0.00 0.00 75 1055.8
20260510152937 78 127 4.0 9.0 0.00 0.00 0.00 78 1055.7
20260510152434 80 124 8.0 11.0 0.00 0.00 0.00 75 1055.6
20260510151931 79 129 7.0 10.0 0.00 0.00 0.00 77 1055.7
20260510151429 78 102 4.0 10.0 0.00 0.00 0.00 79 1055.6
20260510150925 78 129 9.0 11.0 0.00 0.00 0.00 79 1055.6
20260510150420 79 133 4.0 6.0 0.00 0.00 0.00 76 1055.5
20260510145916 79 126 5.0 7.0 0.00 0.00 0.00 77 1055.6
20260510145413 79 182 2.0 6.0 0.00 0.00 0.00 75 1055.3
20260510144910 78 140 2.0 6.0 0.00 0.00 0.00 78 1055.3
20260510144407 78 121 6.0 8.0 0.00 0.00 0.00 77 1055.3
20260510143906 77 142 3.0 8.0 0.00 0.00 0.00 79 1055.3
20260510143402 77 178 3.0 7.0 0.00 0.00 0.00 79 1055.1
20260510142854 78 144 2.0 6.0 0.00 0.00 0.00 78 1055.3
20260510142345 76 119 4.0 4.0 0.00 0.00 0.00 81 1055.0
20260510141842 77 136 5.0 7.0 0.00 0.00 0.00 80 1055.0
20260510141339 76 156 3.0 6.0 0.00 0.00 0.00 80 1055.2
20260510140836 75 139 4.0 6.0 0.00 0.00 0.00 82 1055.0
20260510140331 76 157 6.0 8.0 0.00 0.00 0.00 81 1054.8
20260510135825 75 176 2.0 3.0 0.00 0.00 0.00 82 1054.6
20260510135322 74 193 3.0 8.0 0.00 0.00 0.00 84 1054.7
20260510134819 74 153 4.0 7.0 0.00 0.00 0.00 83 1054.8
20260510134316 74 133 4.0 6.0 0.00 0.00 0.00 83 1054.6
20260510133812 73 164 2.0 6.0 0.00 0.00 0.00 85 1054.5
20260510133308 73 170 4.0 6.0 0.00 0.00 0.00 86 1054.4
20260510132804 73 125 2.0 7.0 0.00 0.00 0.00 85 1054.3
20260510132306 73 129 0.0 2.0 0.00 0.00 0.00 85 1054.2
20260510131759 73 119 2.0 3.0 0.00 0.00 0.00 86 1054.1
20260510131257 72 181 0.0 3.0 0.00 0.00 0.00 88 1053.9
20260510130753 71 190 1.0 4.0 0.00 0.00 0.00 88 1053.9
20260510130250 71 192 3.0 4.0 0.00 0.00 0.00 88 1053.7
20260510125746 71 216 2.0 7.0 0.00 0.00 0.00 89 1053.7
20260510125242 70 204 3.0 4.0 0.00 0.00 0.00 89 1053.6
20260510124739 70 165 1.0 4.0 0.00 0.00 0.00 91 1053.7
20260510124236 69 177 1.0 4.0 0.00 0.00 0.00 91 1053.7
20260510123731 69 185 3.0 4.0 0.00 0.00 0.00 92 1053.6
20260510123227 68 171 1.0 2.0 0.00 0.00 0.00 93 1053.3
20260510122724 68 185 2.0 2.0 0.00 0.00 0.00 94 1053.4
20260510122220 68 210 0.0 2.0 0.00 0.00 0.00 95 1053.2
20260510121716 67 203 2.0 2.0 0.00 0.00 0.00 95 1053.3
20260510121214 67 242 2.0 3.0 0.00 0.00 0.00 96 1053.2
20260510120711 67 203 1.0 3.0 0.00 0.00 0.00 97 1053.0
20260510120208 67 222 1.0 2.0 0.00 0.00 0.00 98 1053.0
20260510115703 66 237 1.0 3.0 0.00 0.00 0.00 98 1053.0
20260510115202 66 237 2.0 2.0 0.00 0.00 0.00 99 1053.0
20260510114656 66 209 0.0 0.0 0.00 0.00 0.00 99 1053.1
20260510114154 66 212 0.0 0.0 0.00 0.00 0.00 99 1053.0
20260510113643 66 212 0.0 0.0 0.00 0.00 0.00 99 1053.0
20260510113140 66 212 0.0 0.0 0.00 0.00 0.00 99 1053.1
20260510112637 66 212 0.0 0.0 0.00 0.00 0.00 99 1052.9
20260510112133 66 213 0.0 0.0 0.00 0.00 0.00 98 1052.9
20260510111629 66 213 0.0 0.0 0.00 0.00 0.00 98 1053.0
20260510111126 66 213 0.0 0.0 0.00 0.00 0.00 98 1052.7
20260510110621 67 212 0.0 0.0 0.00 0.00 0.00 97 1052.9
20260510110120 67 213 0.0 0.0 0.00 0.00 0.00 97 1052.9
20260510105615 67 213 0.0 0.0 0.00 0.00 0.00 97 1052.9
20260510105114 67 212 0.0 0.0 0.00 0.00 0.00 97 1052.9
20260510104612 68 213 1.0 2.0 0.00 0.00 0.00 97 1052.6
20260510104108 68 194 0.0 2.0 0.00 0.00 0.00 97 1052.6
20260510103605 68 190 1.0 2.0 0.00 0.00 0.00 96 1052.5
20260510103101 68 177 0.0 3.0 0.00 0.00 0.00 96 1052.5
20260510102557 68 170 1.0 6.0 0.00 0.00 0.00 96 1052.6
20260510102053 68 185 3.0 4.0 0.00 0.00 0.00 96 1052.6
20260510101551 68 199 1.0 3.0 0.00 0.00 0.00 96 1052.5
20260510101049 69 180 1.0 7.0 0.00 0.00 0.00 95 1052.7
20260510100539 69 218 1.0 8.0 0.00 0.00 0.00 95 1052.5
20260510100036 69 194 0.0 3.0 0.00 0.00 0.00 95 1052.5
20260510095533 69 222 1.0 3.0 0.00 0.00 0.00 94 1052.5
20260510095032 69 192 1.0 3.0 0.00 0.00 0.00 94 1052.5
20260510094527 69 195 3.0 4.0 0.00 0.00 0.00 94 1052.6
20260510094023 69 191 2.0 2.0 0.00 0.00 0.00 94 1052.6
20260510093519 69 193 2.0 2.0 0.00 0.00 0.00 93 1052.5
20260510093015 69 186 1.0 2.0 0.00 0.00 0.00 93 1052.3
20260510092513 69 166 3.0 6.0 0.00 0.00 0.00 93 1052.2
20260510092012 69 201 2.0 3.0 0.00 0.00 0.00 94 1052.2
20260510091509 69 183 2.0 4.0 0.00 0.00 0.00 94 1052.2
20260510091005 69 182 2.0 2.0 0.00 0.00 0.00 94 1052.3
20260510090503 70 210 1.0 3.0 0.00 0.00 0.00 93 1052.4
20260510085958 70 184 2.0 3.0 0.00 0.00 0.00 93 1052.5
20260510085453 70 232 2.0 3.0 0.00 0.00 0.00 93 1052.3
20260510084949 70 199 2.0 3.0 0.00 0.00 0.00 93 1052.7
20260510084446 70 204 2.0 3.0 0.00 0.00 0.00 93 1052.4
20260510083943 70 183 1.0 3.0 0.00 0.00 0.00 92 1052.5
20260510083439 71 196 2.0 2.0 0.00 0.00 0.00 92 1052.7
20260510082935 71 204 3.0 4.0 0.00 0.00 0.00 92 1052.6
20260510082433 71 190 2.0 3.0 0.00 0.00 0.00 92 1052.6
20260510081932 71 226 2.0 3.0 0.00 0.00 0.00 92 1052.7
20260510081428 71 176 2.0 4.0 0.00 0.00 0.00 91 1052.7
20260510080925 71 163 2.0 6.0 0.00 0.00 0.00 91 1052.6
20260510080423 71 151 1.0 3.0 0.00 0.00 0.00 91 1052.6
20260510075920 71 155 2.0 3.0 0.00 0.00 0.00 90 1052.8
20260510075418 71 174 1.0 4.0 0.00 0.00 0.00 90 1052.9
20260510074914 71 165 2.0 3.0 0.00 0.00 0.00 90 1052.8
20260510074406 71 178 1.0 6.0 0.00 0.00 0.00 90 1052.8
20260510073903 71 182 4.0 4.0 0.00 0.00 0.00 90 1052.7
20260510073358 71 157 1.0 6.0 0.00 0.00 0.00 89 1052.8
20260510072854 71 182 4.0 7.0 0.00 0.00 0.00 89 1052.9
20260510072351 71 202 6.0 8.0 0.00 0.00 0.00 89 1052.6
20260510071847 71 149 4.0 7.0 0.00 0.00 0.00 89 1052.7
20260510071343 71 153 2.0 4.0 0.00 0.00 0.00 88 1052.7
20260510070842 71 172 3.0 3.0 0.00 0.00 0.00 88 1052.7
20260510070339 71 154 3.0 3.0 0.00 0.00 0.00 88 1052.8
20260510065839 72 157 3.0 3.0 0.00 0.00 0.00 87 1052.7
20260510065336 72 153 2.0 3.0 0.00 0.00 0.00 87 1052.6
20260510064833 72 164 3.0 4.0 0.00 0.00 0.00 86 1052.6
20260510064331 72 169 1.0 2.0 0.00 0.00 0.00 86 1052.6
20260510063827 73 165 3.0 6.0 0.00 0.00 0.00 85 1052.6
20260510063323 73 173 2.0 3.0 0.00 0.00 0.00 85 1052.5
20260510062820 73 171 2.0 4.0 0.00 0.00 0.00 85 1052.6
20260510062315 73 192 3.0 7.0 0.00 0.00 0.00 84 1052.6
20260510061811 73 190 3.0 6.0 0.00 0.00 0.00 84 1052.8
20260510061308 73 181 3.0 7.0 0.00 0.00 0.00 84 1052.5
20260510060803 73 181 2.0 3.0 0.00 0.00 0.00 85 1052.7
20260510060256 73 172 2.0 4.0 0.00 0.00 0.00 84 1052.7
20260510055752 73 167 2.0 4.0 0.00 0.00 0.00 85 1052.5
20260510055250 73 145 1.0 3.0 0.00 0.00 0.00 85 1052.7
20260510054750 73 153 2.0 6.0 0.00 0.00 0.00 84 1052.7
20260510054247 73 130 2.0 3.0 0.00 0.00 0.00 85 1052.6
20260510053746 74 129 4.0 7.0 0.00 0.00 0.00 84 1052.6
20260510053242 73 134 3.0 6.0 0.00 0.00 0.00 85 1052.7
20260510052737 73 168 2.0 3.0 0.00 0.00 0.00 86 1052.7
20260510052234 73 167 1.0 2.0 0.00 0.00 0.00 86 1052.5
20260510051730 73 167 2.0 2.0 0.00 0.00 0.00 86 1052.8
20260510051226 73 167 2.0 2.0 0.00 0.00 0.00 86 1052.5
20260510050723 73 167 1.0 1.0 0.00 0.00 0.00 86 1052.7
20260510050221 74 167 0.0 1.0 0.00 0.00 0.00 85 1052.6
20260510045717 74 173 1.0 3.0 0.00 0.02 0.02 85 1052.5
20260510045214 74 168 1.0 2.0 0.00 0.02 0.02 85 1052.4
20260510044710 74 168 1.0 2.0 0.00 0.02 0.02 85 1052.4
20260510044208 74 167 1.0 2.0 0.00 0.02 0.02 85 1052.4
20260510043703 74 167 1.0 2.0 0.00 0.02 0.02 86 1052.4
20260510043200 74 167 1.0 2.0 0.00 0.02 0.02 86 1052.4
20260510042657 74 167 1.0 2.0 0.00 0.02 0.02 86 1052.4
20260510042154 74 166 1.0 1.0 0.00 0.02 0.02 86 1052.5
20260510041651 74 166 1.0 2.0 0.00 0.02 0.02 86 1052.5
20260510041148 75 166 1.0 2.0 0.00 0.02 0.02 86 1052.6
20260510040645 75 166 1.0 3.0 0.00 0.02 0.02 85 1052.5
20260510040142 75 166 1.0 2.0 0.00 0.02 0.02 85 1052.4
20260510035637 74 166 0.0 2.0 0.00 0.02 0.02 85 1052.4
20260510035132 74 166 0.0 0.0 0.00 0.02 0.02 85 1052.4
20260510034630 75 166 0.0 0.0 0.00 0.02 0.02 85 1052.2
20260510034127 75 166 0.0 0.0 0.00 0.02 0.02 84 1052.3
20260510033623 75 166 0.0 0.0 0.00 0.02 0.02 85 1052.3
20260510033121 75 166 0.0 1.0 0.00 0.02 0.02 84 1052.3
20260510032617 75 166 1.0 1.0 0.00 0.02 0.02 84 1052.1
20260510032112 75 166 1.0 2.0 0.00 0.02 0.02 84 1052.1
20260510031608 76 166 1.0 1.0 0.00 0.02 0.02 84 1052.1
20260510031104 75 166 2.0 4.0 0.00 0.02 0.02 83 1052.0
20260510030559 75 148 1.0 2.0 0.00 0.02 0.02 83 1052.0
20260510030057 75 148 1.0 1.0 0.00 0.02 0.02 79 1051.9
20260510025554 75 147 0.0 0.0 0.00 0.02 0.02 78 1051.7
20260510025052 76 148 0.0 0.0 0.00 0.02 0.02 77 1051.6
20260510024548 76 147 0.0 0.0 0.00 0.02 0.02 76 1051.9
20260510024044 76 147 0.0 1.0 0.00 0.02 0.02 76 1051.6
20260510023541 76 148 0.0 3.0 0.00 0.02 0.02 75 1051.5
20260510023038 77 148 1.0 2.0 0.00 0.02 0.02 75 1051.3
20260510022537 76 134 2.0 3.0 0.00 0.02 0.02 73 1051.4
20260510022032 77 134 1.0 2.0 0.00 0.02 0.02 72 1051.3
20260510021529 77 134 1.0 1.0 0.00 0.02 0.02 71 1051.2
20260510021027 77 134 0.0 0.0 0.00 0.02 0.02 69 1051.1
20260510020521 77 134 0.0 0.0 0.00 0.02 0.02 68 1051.2
20260510020017 77 134 0.0 0.0 0.00 0.02 0.02 68 1051.1
20260510015512 77 134 0.0 0.0 0.00 0.02 0.02 67 1051.0
20260510015009 78 134 0.0 0.0 0.00 0.02 0.02 66 1051.0
20260510014506 78 134 0.0 0.0 0.00 0.02 0.02 66 1051.2
20260510014002 78 134 1.0 1.0 0.00 0.02 0.02 65 1050.8
20260510013456 79 134 1.0 2.0 0.00 0.02 0.02 64 1050.8
20260510012953 79 134 1.0 2.0 0.00 0.02 0.02 63 1050.6
20260510012448 79 134 1.0 2.0 0.00 0.02 0.02 63 1050.8
20260510011943 80 133 2.0 2.0 0.00 0.02 0.02 61 1050.8
20260510011438 80 134 1.0 2.0 0.00 0.02 0.02 60 1050.6
20260510010934 80 135 2.0 4.0 0.00 0.02 0.02 59 1050.7
20260510010431 81 132 3.0 4.0 0.00 0.02 0.02 58 1050.7
20260510005928 81 191 3.0 4.0 0.00 0.02 0.02 57 1050.6
20260510005423 81 159 3.0 6.0 0.00 0.02 0.02 56 1050.5
20260510004921 82 141 4.0 6.0 0.00 0.02 0.02 55 1050.5
20260510004418 82 202 3.0 4.0 0.00 0.02 0.02 54 1050.6
20260510003916 82 122 5.0 7.0 0.00 0.02 0.02 52 1050.5
20260510003413 83 121 6.0 8.0 0.00 0.02 0.02 52 1050.4
20260510002912 83 153 2.0 8.0 0.00 0.02 0.02 51 1050.3
20260510002409 84 134 3.0 7.0 0.00 0.02 0.02 50 1050.4
20260510001906 84 128 6.0 8.0 0.00 0.02 0.02 47 1050.1
20260510001403 84 132 5.0 9.0 0.00 0.02 0.02 48 1050.2
20260510000900 84 136 4.0 8.0 0.00 0.02 0.02 49 1050.1
20260510000357 84 142 8.0 9.0 0.00 0.02 0.02 48 1050.0
20260509235853 85 171 7.0 9.0 0.00 0.02 0.02 48 1049.9
20260509235350 85 122 4.0 10.0 0.00 0.02 0.02 49 1049.9
20260509234846 85 127 6.0 10.0 0.00 0.02 0.02 54 1049.9
20260509234343 85 134 9.0 10.0 0.00 0.02 0.02 56 1049.8
20260509233842 85 114 8.0 9.0 0.00 0.02 0.02 56 1049.7
20260509233339 85 118 5.0 14.0 0.00 0.02 0.02 57 1049.8
20260509232834 86 142 4.0 10.0 0.00 0.02 0.02 54 1049.7
20260509232333 87 126 8.0 15.0 0.00 0.02 0.02 50 1049.8
20260509231828 88 30 2.0 3.0 0.00 0.02 0.02 53 1049.6
20260509231325 88 38 0.0 2.0 0.00 0.02 0.02 52 1049.5
20260509230823 87 95 4.0 7.0 0.00 0.02 0.02 53 1049.6
20260509230320 87 124 2.0 4.0 0.00 0.02 0.02 55 1049.8
20260509225815 87 130 7.0 9.0 0.00 0.02 0.02 54 1049.7
20260509225312 87 129 4.0 6.0 0.00 0.02 0.02 53 1049.6
20260509224808 87 149 6.0 8.0 0.00 0.02 0.02 54 1049.6
20260509224304 88 108 4.0 7.0 0.00 0.02 0.02 54 1049.6
20260509223801 88 154 2.0 4.0 0.00 0.02 0.02 53 1049.6
20260509223259 87 72 1.0 3.0 0.00 0.02 0.02 56 1049.7
20260509222755 87 125 3.0 4.0 0.00 0.02 0.02 56 1049.5